Weather History for McConnell AFB, KS

Change the Weather History Date:

Sunday, February 3, 2013

  Actual Average Record
Temperature  
Mean Temperature 43 °F -  
Max Temperature 56 °F 42 °F 59 °F (1999)
Min Temperature 30 °F 25 °F 0 °F (2011)
Degree Days  
Heating Degree Days 22    
Moisture  
Dew Point 22 °F    
Average Humidity 41    
Maximum Humidity 74    
Minimum Humidity 22    
Precipitation  
Precipitation 0.00 in - - ()
Sea Level Pressure  
Sea Level Pressure 30.14 in    
Wind  
Wind Speed 12 mph (SSE)    
Max Wind Speed 22 mph    
Max Gust Speed 29 mph    
Visibility 10 miles    
Events      
Averages and records for this station are not official NWS values.
T = Trace of Precipitation, MM = Missing Value Source: NWS Daily Summary

Daily Weather History Graph

Daily Weather History Graph

Search for Another Location

Airport:

Trip Planner

Search our weather history database for the weather conditions in past years. The results will help you decide how hot, cold, wet, or windy it might be!

Date:

Astronomy

Feb. 03, 2013 Rise Set
Actual Time 7:30 AM CST 5:55 PM CST
Civil Twilight 7:03 AM CST 6:23 PM CST
Nautical Twilight 6:32 AM CST 6:54 PM CST
Astronomical Twilight 6:01 AM CST 7:24 PM CST
Moon 12:59 AM CST (2/3) 11:34 AM CST (2/3)
Length of Visible Light 11h 19m
Length of Day
10h 24m
Waning Gibbous, 48% of the Moon is Illuminated
Feb 3
Waning Gibbous
Feb 10
New
Feb 17
First Quarter
Feb 25
Full
Mar 4
Last Quarter

Hourly Weather History & Observations

Time (CST) Temp. Windchill Dew Point Humidity Pressure Visibility Wind Dir Wind Speed Gust Speed Precip Events Conditions
12:55 AM 45.7 °F 40.2 °F 21.6 °F 38% 30.27 in 10.0 mi WNW 11.5 mph - N/A   Clear
1:55 AM 44.2 °F 37.6 °F 21.4 °F 40% 30.27 in 10.0 mi NW 13.8 mph - N/A   Clear
2:55 AM 42.1 °F 35.2 °F 21.9 °F 45% 30.27 in 10.0 mi NNW 12.7 mph - N/A   Clear
3:55 AM 38.8 °F 33.2 °F 22.6 °F 52% 30.27 in 10.0 mi NW 8.1 mph - N/A   Clear
4:55 AM 37.9 °F 30.9 °F 23.2 °F 55% 30.27 in 10.0 mi North 10.4 mph - N/A   Clear
5:55 AM 36.5 °F 29.7 °F 23.7 °F 60% 30.29 in 10.0 mi North 9.2 mph - N/A   Clear
6:55 AM 32.9 °F 25.3 °F 23.5 °F 68% 30.30 in 10.0 mi NE 9.2 mph - N/A   Clear
7:55 AM 30.7 °F - 23.2 °F 74% 30.31 in 10.0 mi Calm Calm - N/A   Clear
8:55 AM 36.7 °F 34.1 °F 24.6 °F 62% 30.30 in 10.0 mi ESE 3.5 mph - N/A   Clear
9:55 AM 41.0 °F 35.8 °F 24.3 °F 51% 30.29 in 10.0 mi East 8.1 mph - N/A   Clear
10:55 AM 45.5 °F 41.3 °F 20.1 °F 36% 30.27 in 10.0 mi East 8.1 mph - N/A   Clear
11:55 AM 49.3 °F - 18.5 °F 30% 30.24 in 10.0 mi SSE 9.2 mph - N/A   Clear
12:55 PM 52.0 °F - 17.4 °F 26% 30.18 in 10.0 mi SSE 10.4 mph - N/A   Clear
1:55 PM 55.2 °F - 18.3 °F 24% 30.12 in 10.0 mi South 15.0 mph - N/A   Clear
2:55 PM 56.5 °F - 17.2 °F 22% 30.07 in 10.0 mi SSE 17.3 mph 23.0 mph N/A   Clear
3:55 PM 56.7 °F - 18.7 °F 23% 30.05 in 10.0 mi SSE 18.4 mph - N/A   Clear
4:55 PM 55.2 °F - 20.3 °F 26% 30.02 in 10.0 mi South 21.9 mph 28.8 mph N/A   Clear
5:55 PM 52.9 °F - 21.6 °F 29% 30.00 in 10.0 mi SSE 13.8 mph - N/A   Mostly Cloudy
6:55 PM 51.3 °F - 22.6 °F 33% 29.98 in 10.0 mi SSE 16.1 mph - N/A   Mostly Cloudy
7:55 PM 50.7 °F - 23.5 °F 35% 29.96 in 10.0 mi SSE 17.3 mph - N/A   Partly Cloudy
8:55 PM 51.4 °F - 24.3 °F 35% 29.93 in 10.0 mi SSE 21.9 mph 27.6 mph N/A   Clear
9:55 PM 50.2 °F - 25.9 °F 39% 29.91 in 10.0 mi South 20.7 mph - N/A   Scattered Clouds
10:55 PM 49.6 °F - 26.8 °F 41% 29.88 in 10.0 mi South 17.3 mph - N/A   Clear
11:55 PM 50.5 °F - 27.3 °F 41% 29.86 in 10.0 mi South 18.4 mph - N/A   Partly Cloudy